7 * 24
多渠道服务支持
STARLINK-37251(NORAD编号68514)是SpaceX星链(Starlink)卫星互联网星座中的一颗低轨通信卫星。星链计划旨在为全球提供高速低延迟互联网服务,该卫星属于星链批量部署的卫星之一,运行在近地轨道,主要用于补充和扩展星链星座的全球网络覆盖能力,满足更多地区用户的接入需求,依托低轨轨道的优势,可为偏远地区、海上及空中场景提供卫星互联网连接服务,目前在轨运行参与星座组网。
美国
(US)
| 数据来源 | 国际轨道数据 |
| 星历时间: | 2026-06-10T08:56:01+0800 11小时前 查看轨道信息 |
| 半长轴: | 6840.837km |
| 偏心率: | 0.0001596 |
| 轨道倾角: | 53.161° |
| 近地点辐角 | 81.818° |
| 升交点赤经 | 58.939° |
| 平近点角 | 278.300° |
| 近地点: | 461.608km |
| 远地点: | 463.792km |
| 周期: | 93.848分钟 |
| 每日圈数: | 15.344014 |